Volver al catálogo

STARLINK-32770

ActivoComunicacionesVLEO
NORAD 62741·PAYLOAD·🇺🇸 United States

Lanzado Jan 21, 2025 desde Cape Canaveral Space Force Station

Loading…

Próximos Pases (próximas 24 horas)

TLE

ActualizadoSource: CelesTrak SupGP

Época: Sep 14, 2026, 14:58 UTC

1 62741C 25014G   26257.62409722  .00042876  00000+0  15533-2 0  2578
2 62741  43.0022 167.1849 0001493 257.9213 146.0907 15.27550959    11

Sigue STARLINK-32770 en tiempo real con AllMySat

Download on the App Store